Wind_Speed
2 2 2 5 3 2 4 7 7 5 4 5 12 12 5 8 5 6 13 12 7 7 7 8 7 5 5 6 8 8 9 11 12 14 17 20 22 23 24 25 25 26 25 25 25 25 26 26 26
2 5 2 2 5 8 9 6 7 5 7 6 11 14 14 11 13 11 10 8 6 6 6 8 6 5 6 7 9 10 11 12 14 16 19 21 24 25 26 26 27 26 26 26 25 25 26 27 27
3 5 2 1 4 10 9 7 7 10 7 4 10 13 15 13 14 13 9 6 4 4 5 7 6 6 7 8 10 11 13 14 16 18 21 24 26 27 28 29 29 29 28 27 25 25 26 27 28
5 6 2 2 6 7 7 7 9 10 8 6 8 7 14 11 13 12 9 5 3 3 5 6 6 7 8 10 12 13 15 16 17 20 23 26 28 30 31 31 31 31 30 28 27 28 29 30 30
7 6 5 3 2 5 7 9 13 12 9 9 10 9 13 12 13 14 11 8 5 4 5 6 7 8 9 12 13 15 16 18 20 22 25 28 30 32 33 33 32 32 32 31 31 33 33 33 34
7 7 7 5 3 3 5 8 11 13 11 10 10 11 12 12 12 14 13 9 7 6 6 7 8 9 11 13 15 16 18 19 22 25 28 31 33 34 35 34 33 33 32 33 34 35 36 37 36
6 6 8 6 5 4 5 9 11 11 13 13 12 12 11 11 11 12 12 10 8 7 6 7 8 10 12 14 16 17 18 20 23 26 30 32 34 34 33 34 34 34 34 35 37 39 40 39 36
8 6 7 7 5 5 9 11 12 10 10 12 9 9 12 11 9 9 10 10 8 7 7 7 9 11 13 15 16 17 19 21 24 28 30 31 32 33 34 35 35 35 36 38 41 41 39 37 35
10 7 9 8 7 5 15 13 10 10 11 9 8 8 9 9 8 8 8 8 8 6 7 8 9 11 13 14 14 17 19 22 25 27 29 31 32 33 35 35 36 37 39 42 43 42 39 37 36
10 10 8 7 7 8 13 8 11 11 12 7 8 8 9 9 9 9 8 8 7 7 8 9 10 11 13 14 16 17 18 22 25 28 30 31 32 33 34 35 37 39 42 43 42 40 39 37 35
10 12 9 8 11 12 9 9 9 12 11 8 10 10 10 11 10 10 10 9 8 9 9 10 11 11 12 15 16 15 19 22 26 28 30 31 33 34 36 38 40 42 44 42 40 39 38 36 35
13 12 11 8 9 13 15 10 9 13 10 10 11 12 13 14 14 14 13 11 11 11 11 11 11 11 13 14 14 16 20 24 28 30 32 32 33 35 36 38 42 45 42 40 38 38 37 37 36
14 12 11 10 12 14 16 13 10 14 14 13 13 14 16 17 17 18 17 15 12 13 14 12 11 12 13 13 14 18 21 26 30 33 33 32 33 35 37 41 44 40 40 39 38 36 37 36 33
10 13 12 11 13 20 15 15 14 13 17 16 16 17 17 17 18 20 18 16 15 15 15 14 12 12 13 14 17 20 23 27 32 34 33 32 32 35 40 42 40 39 38 37 36 35 33 33 33
15 14 12 13 14 15 15 15 12 17 17 15 18 20 18 18 19 20 20 18 18 18 17 15 14 13 15 17 19 22 26 30 33 34 32 31 33 39 40 39 38 37 36 35 34 32 33 33 34
10 12 15 13 17 15 18 25 15 18 17 18 19 21 22 21 20 20 21 21 20 20 19 17 15 16 18 19 21 23 27 31 34 32 31 32 37 38 39 38 36 35 34 31 31 31 31 32 33
13 18 18 13 15 18 12 18 15 15 14 17 18 20 20 19 18 19 21 22 23 22 21 19 18 19 20 21 23 25 28 32 34 33 31 35 37 38 37 36 34 33 31 30 31 32 32 31 30
14 10 10 12 8 11 14 17 15 11 12 14 16 17 17 17 18 19 21 22 23 22 22 21 20 21 22 25 26 26 29 32 33 33 34 36 39 38 36 35 32 30 30 31 31 31 32 31 25
11 13 15 17 14 13 11 13 8 8 12 14 12 14 15 15 15 15 17 20 21 21 23 23 21 22 23 27 27 28 30 34 35 34 33 36 37 36 33 32 30 30 31 31 31 30 28 25 27
9 12 15 14 9 8 9 6 2 10 7 9 11 10 11 11 12 13 14 15 19 21 23 23 23 23 24 28 27 28 31 35 32 32 33 34 35 33 32 29 29 30 31 31 32 29 25 27 32
12 13 12 11 8 8 3 10 4 4 4 7 6 7 10 11 13 13 12 11 15 19 22 24 24 25 27 30 29 29 32 32 32 31 34 34 34 32 30 30 30 31 31 31 29 26 28 31 32
12 8 10 9 7 8 3 10 7 9 9 5 7 8 11 10 11 11 10 9 11 17 20 22 24 26 29 30 32 31 29 31 28 32 31 35 33 30 29 30 31 32 32 31 26 28 31 35 33
8 4 3 3 6 7 8 11 8 5 7 8 10 9 9 9 12 13 11 9 11 14 17 20 23 27 29 31 31 30 32 29 30 31 33 31 30 28 29 30 31 32 31 27 26 30 33 34 32
8 6 5 6 8 13 4 7 11 8 10 8 7 8 10 13 14 13 11 8 7 10 14 18 23 26 29 30 31 32 30 33 35 29 28 29 28 29 30 31 32 32 28 25 28 32 34 33 30
10 8 11 7 8 4 4 5 7 9 8 9 11 13 14 15 15 13 8 5 6 9 14 19 22 26 28 32 35 31 34 34 27 27 26 26 27 28 30 32 33 31 25 27 31 34 34 32 29
11 11 10 7 6 3 2 6 4 9 11 11 12 13 14 13 11 9 8 7 6 9 14 18 23 26 29 34 32 33 32 26 26 25 24 25 27 29 30 32 32 28 25 28 32 34 33 31 29
5 6 6 3 5 6 4 5 4 10 11 12 12 13 13 11 11 9 9 7 8 12 16 20 24 27 33 30 30 31 25 24 25 24 24 26 28 30 32 33 31 26 26 29 33 33 32 31 30
2 3 3 3 3 5 5 5 6 10 12 13 13 12 11 12 12 11 9 9 11 14 18 21 24 29 30 30 30 26 23 24 23 24 25 26 28 31 33 34 31 27 27 29 32 34 32 31 29
2 2 2 2 2 5 5 8 8 9 10 11 9 10 11 12 12 11 10 11 14 17 19 23 26 30 30 30 30 25 23 23 24 24 25 27 29 31 33 33 31 28 28 29 30 32 33 31 30
2 1 1 6 2 0 3 5 7 9 10 9 9 9 11 12 11 12 13 15 17 20 21 24 27 28 28 30 25 22 22 23 23 24 25 27 29 31 33 33 32 30 28 29 30 32 33 33 31
Wind_Direction
208 143 97 36 43 283 22 11 3 345 350 356 16 24 8 2 338 286 306 307 289 275 240 218 224 240 274 296 307 311 312 322 333 337 340 341 337 334 331 329 326 325 325 323 321 319 318 317 315
208 173 131 30 313 329 14 353 350 346 343 337 0 12 7 356 356 341 325 310 288 268 235 223 233 253 280 297 305 309 311 316 324 330 333 332 330 328 327 328 327 327 326 323 321 319 318 315 314
206 188 132 342 355 0 346 348 345 356 354 334 353 1 4 355 358 351 340 325 288 251 233 232 247 268 283 292 301 307 308 314 321 325 326 326 326 325 326 327 327 327 326 324 321 319 316 314 314
208 193 205 311 16 20 20 4 4 354 353 329 344 357 354 356 358 356 354 340 307 273 254 254 264 273 283 293 303 306 309 311 316 319 319 320 323 323 324 325 326 325 325 324 322 320 320 319 316
205 195 224 262 30 24 28 32 20 13 353 334 340 340 353 353 358 359 358 350 326 295 270 264 271 279 288 300 304 306 307 310 313 315 315 319 320 322 322 322 325 325 326 324 324 323 322 320 318
203 215 235 236 17 352 20 13 11 11 352 329 331 337 344 350 356 1 357 349 332 308 285 276 279 287 296 302 304 307 309 310 312 314 316 318 319 320 320 322 325 326 326 325 324 323 321 319 317
195 231 260 262 310 324 329 357 358 355 347 341 327 328 338 344 350 1 359 351 337 316 297 285 285 291 299 302 305 306 310 312 313 314 315 317 318 318 320 326 327 327 327 324 323 323 322 320 317
205 227 247 245 285 326 332 333 344 344 332 333 336 320 328 334 335 347 359 356 340 321 301 287 287 292 296 300 305 311 314 314 314 316 316 318 319 322 326 326 326 326 325 324 323 323 321 318 315
207 230 247 253 270 310 321 332 339 338 342 326 327 311 321 328 322 327 334 345 349 321 299 289 286 291 296 300 308 314 316 317 320 321 322 323 326 326 325 325 325 325 324 324 323 321 319 317 315
206 243 253 259 271 299 323 334 329 338 349 325 309 305 317 323 319 308 313 318 327 320 294 283 283 287 294 304 312 317 323 325 328 329 329 328 328 325 324 324 325 324 323 321 320 319 318 317 315
231 241 261 277 276 303 301 311 327 344 336 330 304 308 313 317 310 307 301 298 299 303 296 286 285 287 295 305 314 319 327 330 333 333 332 330 327 326 326 326 325 324 323 322 322 321 319 317 315
240 255 255 273 290 296 301 298 311 337 310 321 313 319 313 303 303 300 293 289 282 286 291 287 284 281 291 306 314 319 326 332 333 333 332 330 327 327 326 325 323 323 323 323 323 321 319 317 316
241 251 256 273 298 297 291 298 303 325 319 319 323 324 318 310 298 295 295 289 283 273 277 278 277 278 290 303 310 318 325 331 333 334 331 328 328 327 325 323 322 324 325 324 322 322 320 319 319
255 246 260 265 289 298 297 297 305 304 311 311 320 324 318 314 303 292 290 279 274 268 271 270 269 273 284 294 305 314 324 330 330 332 329 328 328 326 323 323 324 325 323 324 324 324 322 320 318
246 254 260 258 280 289 309 302 303 311 316 318 322 320 321 306 301 286 276 270 267 269 267 263 263 270 280 289 303 315 324 326 329 329 325 328 327 325 323 324 324 325 325 325 323 323 322 320 317
240 244 251 240 286 299 287 289 311 321 318 307 309 311 315 308 293 281 272 265 264 268 265 262 265 271 279 292 304 315 320 326 326 325 326 328 327 324 324 325 325 325 324 325 324 322 320 320 318
248 255 267 268 271 274 287 290 309 321 325 320 320 313 311 309 299 285 276 266 260 263 265 263 266 271 281 295 304 313 322 323 326 325 328 327 325 324 325 325 326 325 326 326 324 323 322 320 318
266 257 261 269 278 293 297 300 323 333 339 331 322 315 314 315 306 293 279 268 264 267 268 268 270 278 286 293 308 314 321 324 325 324 325 326 325 326 327 326 327 327 327 327 326 324 322 321 323
265 268 271 274 281 305 297 308 330 333 312 313 321 321 322 318 313 307 295 280 270 268 267 268 275 283 290 300 303 313 324 326 323 316 325 325 326 327 326 327 328 329 328 327 326 325 323 323 322
268 272 276 283 272 295 296 315 305 319 331 347 344 340 342 338 328 316 304 290 273 270 270 271 275 282 288 293 303 318 323 320 316 320 325 326 327 326 327 328 329 328 328 327 326 325 327 325 326
272 272 277 280 274 293 294 262 96 25 358 5 6 6 349 340 334 324 310 289 277 276 273 275 279 284 290 299 311 314 323 317 316 328 329 328 328 328 328 330 330 329 329 327 326 328 326 328 328
273 275 275 263 254 274 321 296 85 106 18 5 10 353 349 336 335 327 314 294 276 266 268 273 280 286 295 309 312 325 321 319 326 330 329 326 327 329 330 330 330 329 328 328 330 329 330 330 328
267 286 299 233 258 273 233 278 74 64 359 352 347 338 331 330 330 328 319 293 274 274 278 283 286 294 307 311 320 331 324 322 327 324 327 327 328 329 330 331 331 330 329 331 332 330 332 329 327
264 277 272 275 268 258 247 276 50 19 0 357 351 346 342 334 328 323 315 310 294 284 280 287 298 306 310 316 328 328 323 320 324 333 329 328 331 331 333 332 331 330 331 333 332 332 332 328 327
251 249 260 244 223 292 139 275 54 15 8 4 0 357 348 344 339 336 336 323 301 301 300 302 303 309 314 323 325 323 321 328 334 332 330 332 333 333 333 332 332 331 333 334 333 333 330 327 326
225 245 269 282 286 340 214 147 39 25 22 16 10 358 348 345 350 3 7 0 343 314 296 298 303 308 316 321 324 324 330 337 335 332 333 334 335 335 335 336 334 333 333 333 335 333 330 329 328
229 239 253 253 254 259 109 117 27 16 11 8 2 356 352 0 6 7 359 345 318 300 300 305 307 312 320 324 323 330 337 336 335 334 337 339 338 338 339 340 339 334 331 333 335 333 333 330 328
184 194 265 202 257 285 128 103 35 13 11 3 355 354 8 10 10 1 353 340 319 311 312 304 311 319 323 324 329 334 335 335 337 341 341 341 340 341 343 344 340 333 330 332 335 335 335 333 331
331 288 315 290 275 299 294 100 20 14 359 348 356 7 8 6 2 359 346 331 323 320 314 313 317 323 325 328 331 332 335 339 343 344 343 342 343 345 346 345 341 333 330 331 333 336 335 334 331
1 143 334 299 140 237 293 113 8 0 353 356 355 357 356 356 356 348 339 331 325 328 320 316 320 323 327 330 333 337 341 345 346 344 344 345 345 347 347 347 344 338 332 330 333 335 336 333 331
Height
3196 3197 3197 3197 3200 3195 3193 3195 3192 3191 3189 3188 3187 3186 3187 3185 3185 3187 3180 3178 3177 3177 3176 3177 3177 3177 3177 3176 3176 3175 3174 3173 3172 3170 3169 3167 3165 3163 3160 3157 3154 3150 3147 3143 3140 3137 3134 3132 3130
3197 3197 3198 3197 3198 3190 3192 3194 3194 3191 3189 3187 3186 3185 3184 3183 3181 3180 3178 3177 3176 3176 3176 3176 3176 3175 3175 3175 3174 3173 3172 3171 3170 3168 3167 3165 3163 3161 3158 3155 3151 3147 3144 3141 3138 3134 3131 3128 3125
3197 3197 3199 3199 3197 3194 3195 3194 3191 3189 3187 3187 3186 3185 3184 3183 3181 3179 3177 3176 3175 3175 3175 3175 3174 3174 3174 3173 3173 3172 3171 3170 3168 3166 3165 3163 3160 3157 3154 3150 3146 3143 3140 3137 3134 3131 3128 3124 3121
3196 3198 3199 3197 3196 3196 3195 3193 3190 3188 3187 3187 3187 3185 3184 3182 3180 3178 3176 3174 3174 3173 3174 3174 3173 3173 3173 3172 3172 3171 3170 3168 3166 3165 3163 3160 3157 3153 3149 3146 3142 3138 3135 3132 3130 3127 3123 3120 3117
3196 3197 3199 3196 3196 3196 3194 3192 3190 3188 3187 3186 3185 3184 3183 3181 3179 3177 3175 3174 3173 3173 3173 3173 3172 3172 3171 3171 3170 3169 3168 3166 3164 3162 3159 3156 3153 3148 3144 3141 3137 3133 3129 3126 3123 3120 3116 3113 3109
3197 3197 3197 3192 3195 3195 3193 3192 3190 3189 3187 3185 3185 3183 3182 3180 3179 3177 3175 3173 3173 3172 3172 3171 3171 3171 3170 3169 3168 3166 3165 3163 3161 3158 3155 3151 3148 3144 3139 3135 3132 3128 3124 3120 3117 3113 3110 3106 3103
3196 3198 3195 3195 3195 3194 3193 3192 3190 3189 3186 3185 3184 3182 3182 3180 3178 3176 3175 3173 3172 3172 3171 3170 3170 3169 3167 3166 3166 3164 3162 3160 3158 3155 3151 3147 3143 3139 3135 3130 3126 3122 3118 3115 3111 3106 3102 3098 3095
3194 3196 3195 3195 3194 3194 3192 3191 3190 3189 3187 3185 3183 3182 3180 3179 3178 3177 3175 3173 3172 3171 3170 3169 3168 3167 3166 3164 3163 3161 3159 3157 3154 3151 3147 3142 3138 3133 3129 3124 3121 3117 3113 3109 3104 3100 3096 3091 3087
3192 3196 3193 3193 3194 3193 3190 3190 3189 3188 3186 3184 3183 3181 3179 3178 3177 3176 3174 3173 3171 3170 3168 3167 3166 3164 3163 3162 3160 3157 3156 3153 3150 3147 3143 3138 3133 3128 3123 3120 3116 3112 3107 3102 3097 3093 3089 3085 3081
3191 3193 3192 3192 3192 3192 3189 3188 3187 3186 3184 3183 3181 3180 3178 3177 3175 3174 3173 3172 3170 3168 3167 3165 3164 3162 3160 3159 3156 3155 3153 3150 3146 3142 3138 3132 3128 3124 3120 3116 3111 3106 3101 3097 3091 3087 3082 3078 3074
3190 3191 3191 3191 3189 3188 3189 3187 3186 3185 3183 3182 3180 3178 3177 3175 3174 3172 3171 3169 3168 3166 3164 3162 3161 3159 3158 3156 3154 3152 3150 3147 3143 3138 3132 3128 3123 3118 3114 3109 3104 3100 3095 3090 3084 3079 3074 3070 3067
3187 3188 3189 3189 3188 3187 3186 3186 3185 3184 3183 3180 3178 3176 3174 3173 3171 3170 3168 3166 3165 3163 3162 3160 3158 3157 3155 3153 3152 3150 3147 3143 3138 3133 3127 3123 3118 3113 3109 3104 3099 3094 3088 3083 3077 3072 3067 3063 3059
3184 3186 3186 3186 3185 3185 3184 3183 3183 3181 3179 3177 3175 3174 3172 3170 3169 3167 3166 3164 3162 3160 3158 3156 3155 3154 3152 3151 3149 3146 3143 3138 3133 3128 3124 3118 3113 3109 3104 3099 3094 3088 3082 3076 3071 3065 3060 3056 3052
3183 3183 3183 3183 3183 3182 3182 3182 3180 3179 3176 3174 3173 3170 3169 3167 3166 3164 3163 3161 3159 3157 3155 3154 3152 3151 3149 3148 3145 3142 3138 3134 3129 3124 3119 3114 3109 3105 3099 3094 3087 3081 3076 3069 3064 3060 3055 3051 3046
3180 3181 3181 3180 3180 3179 3180 3180 3177 3176 3173 3171 3169 3167 3165 3164 3162 3160 3159 3157 3155 3153 3152 3151 3149 3148 3147 3145 3141 3138 3134 3130 3125 3120 3116 3109 3104 3099 3094 3088 3081 3075 3070 3064 3059 3055 3050 3045 3040
3178 3179 3179 3176 3176 3176 3178 3178 3175 3173 3170 3168 3165 3163 3161 3159 3157 3156 3154 3153 3151 3150 3149 3148 3147 3145 3143 3140 3137 3133 3129 3125 3121 3115 3109 3104 3100 3095 3088 3082 3075 3069 3064 3059 3055 3050 3046 3041 3035
3176 3175 3174 3174 3175 3175 3176 3174 3173 3169 3166 3163 3161 3158 3156 3154 3153 3152 3150 3149 3147 3147 3146 3145 3143 3141 3139 3136 3132 3129 3125 3121 3116 3110 3103 3098 3094 3089 3082 3076 3070 3064 3059 3055 3050 3044 3039 3035 3031
3170 3172 3172 3174 3173 3172 3173 3172 3171 3166 3164 3161 3158 3155 3153 3151 3149 3147 3146 3145 3145 3145 3143 3141 3140 3138 3135 3131 3126 3124 3120 3115 3110 3105 3099 3094 3088 3082 3076 3070 3065 3060 3054 3049 3044 3039 3033 3028 3024
3171 3172 3171 3172 3171 3169 3169 3169 3167 3163 3160 3157 3155 3152 3150 3147 3146 3144 3143 3142 3142 3141 3139 3137 3136 3134 3131 3127 3123 3119 3115 3111 3105 3101 3094 3089 3083 3076 3071 3065 3059 3054 3049 3043 3039 3034 3029 3024 3019
3168 3169 3168 3168 3166 3166 3166 3166 3162 3160 3157 3155 3153 3150 3148 3146 3144 3141 3139 3139 3138 3137 3136 3134 3132 3130 3127 3123 3120 3116 3110 3106 3102 3096 3089 3084 3077 3072 3066 3060 3054 3050 3044 3038 3033 3028 3024 3019 3012
3166 3166 3165 3165 3163 3162 3161 3160 3160 3157 3156 3154 3152 3150 3148 3145 3143 3139 3137 3135 3134 3134 3133 3131 3130 3127 3124 3120 3117 3111 3107 3102 3097 3088 3084 3079 3073 3067 3062 3056 3051 3045 3039 3033 3028 3023 3018 3013 3008
3163 3162 3161 3161 3161 3157 3159 3156 3155 3157 3155 3152 3150 3149 3146 3143 3140 3137 3134 3132 3131 3129 3129 3128 3126 3124 3121 3118 3113 3107 3103 3098 3090 3085 3080 3074 3069 3063 3057 3051 3045 3040 3034 3028 3023 3018 3012 3006 3001
3161 3160 3159 3158 3158 3158 3154 3155 3156 3156 3155 3150 3149 3147 3144 3141 3138 3135 3132 3130 3128 3128 3128 3127 3124 3122 3119 3114 3109 3103 3099 3092 3087 3081 3075 3070 3063 3058 3053 3047 3041 3035 3029 3023 3018 3013 3007 3001 2995
3158 3157 3157 3156 3155 3152 3149 3153 3156 3153 3152 3150 3148 3145 3143 3140 3137 3133 3131 3129 3128 3127 3126 3125 3123 3120 3116 3110 3104 3100 3095 3089 3083 3077 3072 3067 3061 3055 3049 3043 3037 3030 3024 3019 3014 3008 3002 2997 2991
3155 3156 3151 3149 3146 3145 3149 3151 3155 3154 3151 3149 3147 3144 3141 3139 3136 3132 3130 3128 3126 3127 3126 3123 3120 3117 3112 3107 3101 3096 3091 3086 3080 3074 3069 3063 3058 3052 3046 3039 3032 3026 3020 3015 3010 3003 2998 2992 2986
3152 3152 3149 3147 3143 3143 3148 3148 3156 3152 3150 3148 3145 3143 3140 3137 3134 3131 3129 3128 3127 3124 3122 3120 3118 3114 3108 3104 3098 3093 3088 3082 3076 3071 3065 3060 3055 3049 3043 3035 3028 3022 3016 3012 3006 2999 2993 2987 2980
3149 3150 3149 3149 3148 3148 3147 3153 3153 3153 3149 3147 3145 3142 3139 3136 3134 3131 3129 3127 3125 3123 3121 3119 3115 3110 3106 3101 3095 3089 3084 3078 3073 3068 3062 3057 3052 3046 3039 3032 3024 3018 3013 3008 3002 2995 2988 2981 2974
3149 3149 3150 3148 3146 3143 3146 3151 3154 3152 3148 3146 3144 3141 3138 3136 3134 3131 3129 3127 3125 3122 3120 3117 3113 3108 3103 3097 3092 3086 3080 3075 3070 3065 3060 3055 3049 3042 3035 3028 3021 3015 3010 3004 2998 2991 2983 2977 2970
3150 3149 3149 3148 3148 3143 3142 3149 3152 3150 3148 3146 3143 3141 3138 3136 3133 3131 3128 3125 3123 3121 3118 3115 3110 3105 3100 3095 3089 3083 3078 3072 3068 3063 3058 3052 3046 3040 3033 3025 3019 3012 3006 3001 2995 2987 2979 2972 2966
3148 3148 3148 3147 3147 3147 3146 3152 3151 3149 3147 3145 3143 3141 3138 3135 3133 3130 3127 3124 3122 3119 3116 3112 3107 3102 3097 3092 3086 3081 3075 3070 3066 3061 3056 3050 3044 3037 3030 3023 3016 3009 3003 2997 2991 2983 2975 2968 2962